Regional Weather Roundup
Issued by NWS

Home | Current Version | Previous Version | Text Only | Print | Product List | Glossary On
Versions: 1 2 3 4 5 6 7 8 9 10 11 12 13 14 15 16 17 18 19 20 21 22 23 24 25 26 27 28 29 30 31 32 33 34 35 36 37 38 39 40 41 42 43 44 45 46 47 48 49 50
000
ASUS45 KABQ 121710
RWRNM
NEW MEXICO REGIONAL WEATHER ROUNDUP
NATIONAL WEATHER SERVICE ALBUQUERQUE NM
1000 AM MST TUE DEC 12 2017

NOTE: "FAIR" MEANS FEW OR NO CLOUDS BELOW 12,000 FEET AGL WITH NO
       SIGNIFICANT WEATHER OR OBSTRUCTIONS TO VISION.

      THIS PRODUCT IS RELEASED AS TWO VERSIONS.  ONE VERSION NEAR
      THE TOP OF THE HOUR CONTAINING PRELIMINARY DATA FROM ALBUQUERQUE
      AND OTHER STATIONS.  A FINAL VERSION WITH ADDITIONAL DATA IS
      ISSUED ABOUT 10 MINUTES AFTER THE HOUR.

NMZ501-503-504-510>518-121800-
NORTHWEST PLATEAU/NORTHCENTRAL MOUNTAINS

CITY           SKY/WX    TMP DP  RH WIND       PRES   REMARKS
FARMINGTON     FAIR      29   4  34 E5        30.52S WCI  24
LOS ALAMOS     FAIR      38   4  24 NE3       30.53F
SANTA FE       FAIR      39   4  23 N16       30.51F WCI  30
TAOS           FAIR      37   3  24 VRB3      30.56F
ANGEL FIRE     FAIR      31  14  48 CALM      30.54F

$$
NMZ402-403-502-505>509-121800-
WESTCENTRAL MOUNTAINS/SOUTHWEST MOUNTAINS

CITY           SKY/WX    TMP DP  RH WIND       PRES   REMARKS
GALLUP         FAIR      31  -3  23 CALM      30.52F
GRANTS         FAIR      29  -4  24 NW7       30.55S WCI  22
SILVER CITY    FAIR      51   5  15 SE12      30.49R

$$
NMZ407-409-411-412-121800-
SOUTHERN DESERTS

CITY           SKY/WX    TMP DP  RH WIND       PRES   REMARKS
DEMING         FAIR      49   7  18 E13       30.50R
LAS CRUCES     FAIR      49   6  17 E3        30.51R
HOLLOMAN AFB   FAIR      47  12  24 CALM      30.53R
ALAMOGORDO     FAIR      48   9  20 SW6       30.52R
T OR C         FAIR      48   3  15 N6        30.50S

$$
NMZ519>523-121800-
CENTRAL VALLEYS/CENTRAL HIGHLANDS

CITY           SKY/WX    TMP DP  RH WIND       PRES   REMARKS
ALBUQUERQUE    FAIR      37   6  27 NW5       30.52S WCI  33
DOUBLE EAGLE   SUNNY     43   9  24 NE8       30.53R
MORIARTY ARPT  FAIR      40   9  27 CALM      30.53S
CLINES CORNERS FAIR      43   9  24 W12       30.51S
BELEN          FAIR      42   4  20 CALM      30.53S
SOCORRO        FAIR      37   0  20 N8        30.53R WCI  31

$$
NMZ524>526-539-540-121800-
SOUTHCENTRAL MOUNTAINS

CITY           SKY/WX    TMP DP  RH WIND       PRES   REMARKS
RUIDOSO        FAIR      41   7  24 CALM      30.54S

$$
NMZ527>531-121800-
NORTHEAST HIGHLANDS/NORTHEAST PLAINS

CITY           SKY/WX    TMP DP  RH WIND       PRES   REMARKS
LAS VEGAS      FAIR      43   8  23 S16       30.46F
RATON          FAIR      42   7  23 NE5       30.45S
CLAYTON        FAIR      51   8  17 W22       30.39F

$$
NMZ532>537-121800-
EASTCENTRAL PLAINS

CITY           SKY/WX    TMP DP  RH WIND       PRES   REMARKS
SANTA ROSA     FAIR      44  10  25 SW6       30.49F
TUCUMCARI      FAIR      50  10  20 W8        30.46S
CANNON AFB     FAIR      47  10  22 W8        30.50S
CLOVIS AIRPORT FAIR      49  11  21 W10       30.49S

$$
NMZ028-029-538-121800-
SOUTHEAST PLAINS

CITY           SKY/WX    TMP DP  RH WIND       PRES   REMARKS
ROSWELL        FAIR      47  13  25 CALM      30.52S
ARTESIA        FAIR      46  10  23 CALM      30.54F
CARLSBAD       FAIR      47  16  29 CALM      30.54S
HOBBS          SUNNY     46  16  29 VRB3      30.52S


$$




USA.gov is the U.S. government's official web portal to all federal, state and local government web resources and services.